Weather in Ladispoli

Italy     41°57′09″N   12°04′30″E
temp.,
°C
wind,
m/s
gust,
m/s
humid.,
%
clouds,
%
prec.,
mm/h
press.,
hPa
HPBL,
m
25 october, mon
mon2523:00+16ne3662100 0.0 1019140
02:00+15ne2464100 0.0 101893
05:00+13ne2264100 0.0 101852
08:00+13ne2262100 0.0 101856
11:00+19ne2237100 0.0 1019438
14:00+22w2237100 0.0 1017839
17:00+21nw1242100 0.0 101791
20:00+18e2252100 0.0 101857
26 october, tue
tue2623:00+17ese2471100 0.2 1019221
02:00+14nne1289100 2.1 1019132
05:00+14nnw1187100 1.1 101895
08:00+14ne1186100 1.4 101847
11:00+17se0171100 0.1 1019425
14:00+19sw326556 0.1 1018744
17:00+18w226533 0.0 1018389
20:00+15n117789 0.0 101973
27 october, wed
wed2723:00+14ne1181100 0.0 102035
02:00+13nne2181100 0.0 102039
05:00+13nne1180100 0.0 102039
08:00+13nne227988 0.0 102047
11:00+19e1250100 0.0 1021592
14:00+20sw1249100 0.0 1020938
17:00+18w2261100 0.0 1020268
20:00+16nw23705 0.0 1021103
28 october, thu
thu2823:00+14ene2267100 0.0 102140
02:00+13ne226523 0.0 102145
05:00+13nne2266100 0.0 102042
08:00+13ne1162100 0.0 102044
11:00+18sw004453 0.0 1021374
14:00+20wsw324575 0.0 1019779
17:00+18w335486 0.0 1019266
20:00+15nnw226351 0.0 101967
29 october, fri
fri2923:00+14ene1160100 0.0 101931
02:00+13ene2261100 0.0 101947
05:00+13ne2263100 0.0 101844
08:00+14nne2260100 0.0 101844
11:00+19sw114595 0.0 1018444
14:00+19wsw3248100 0.0 1017578
17:00+18w3457100 0.0 1016256
20:00+14nnw33725 0.0 101692